Date String (YYYY-MM-DD hh:mm:ss) UTC,Instrument flags,Ambient pressure (hPa),Sample flow (lpm),Bypass flow (lpm),Sample temperature (°C),Ambient temperature (°C),ASC tube jacket temperature (°C),LED temperature (°C),Box temperature (°C),Sample RH (%),Span deviation,Mass concentration (μg/m³),Mass concentration (μg/m³),Mass concentration (μg/m³)
DateTimeUTC,F1_M11,P_M11,Q1_M11,Q2_M11,T1_M11,T2_M11,T3_M11,T4_M11,T5_M11,U1_M11,ZSPAN_M11,X0_M11,X2_M11,X1_M11
2023-05-01 22:00:00,,0826.4,4.99,0.00,30.5,29.3,00.0,38.9,32.0,11.1,0000.0,0021.44,0007.41,0005.09
2023-05-01 22:01:00,,0826.3,5.01,0.00,30.4,29.2,00.0,38.9,31.9,11.2,0000.0,0021.20,0007.52,0005.11
2023-05-01 22:02:00,,0826.4,4.99,0.00,30.5,29.2,00.0,38.9,31.9,11.5,0000.0,0022.05,0007.55,0005.14
2023-05-01 22:03:00,,0826.5,4.99,0.00,30.5,29.3,00.0,38.9,32.0,11.3,0000.0,0020.86,0007.53,0005.16
2023-05-01 22:04:00,,0826.5,4.99,0.00,30.5,29.3,00.0,38.9,32.0,11.0,0000.0,0019.62,0007.61,0005.22
2023-05-01 22:05:00,,0826.6,4.99,0.00,30.5,29.2,00.0,38.9,32.0,10.8,0000.0,0019.04,0007.66,0005.25
2023-05-01 22:06:00,,0826.6,5.01,0.00,30.5,29.2,00.0,38.9,32.0,10.8,0000.0,0018.96,0007.67,0005.27
2023-05-01 22:07:00,,0826.6,5.01,0.00,30.5,28.8,00.0,38.9,32.0,11.0,0000.0,0019.03,0007.73,0005.28
2023-05-01 22:08:00,,0826.6,4.98,0.00,30.5,26.9,00.0,38.8,31.7,11.0,0000.0,0018.57,0007.73,0005.29
2023-05-01 22:09:00,,0826.6,5.02,0.00,30.4,25.9,00.0,38.7,31.5,11.0,0000.0,0017.90,0007.80,0005.31
2023-05-01 22:10:00,,0826.6,4.99,0.00,30.3,26.0,00.0,38.6,31.4,11.1,0000.0,0017.37,0007.84,0005.33
2023-05-01 22:11:00,,0826.6,5.00,0.00,30.2,26.3,00.0,38.6,31.3,11.2,0000.0,0017.86,0007.87,0005.35
2023-05-01 22:12:00,,0826.6,5.01,0.00,30.2,26.7,00.0,38.6,31.4,11.3,0000.0,0017.68,0007.76,0005.36
2023-05-01 22:13:00,,0826.5,4.99,0.00,30.1,27.1,00.0,38.6,31.4,11.2,0000.0,0016.40,0007.74,0005.36
2023-05-01 22:14:00,,0826.5,4.99,0.00,30.1,27.5,00.0,38.6,31.5,11.3,0000.0,0016.60,0007.70,0005.33
2023-05-01 22:15:00,,0826.5,5.00,0.00,30.1,27.8,00.0,38.6,31.6,11.4,0000.0,0018.01,0007.67,0005.30
2023-05-01 22:16:00,,0826.5,5.00,0.00,30.1,28.0,00.0,38.6,31.6,11.1,0000.0,0018.68,0007.68,0005.30
2023-05-01 22:17:00,,0826.4,5.00,0.00,30.1,28.2,00.0,38.6,31.6,11.0,0000.0,0018.85,0007.68,0005.31
2023-05-01 22:18:00,,0826.4,5.00,0.00,30.1,28.3,00.0,38.6,31.6,11.0,0000.0,0020.03,0007.80,0005.34
2023-05-01 22:19:00,,0826.4,5.00,0.00,30.1,28.4,00.0,38.6,31.6,11.3,0000.0,0020.28,0007.83,0005.37
2023-05-01 22:20:00,,0826.4,4.99,0.00,30.1,28.5,00.0,38.6,31.6,11.2,0000.0,0019.96,0007.78,0005.35
2023-05-01 22:21:00,,0826.6,4.99,0.00,30.1,28.6,00.0,38.6,31.6,11.2,0000.0,0020.67,0007.73,0005.34
2023-05-01 22:22:00,,0826.6,5.00,0.00,30.2,28.6,00.0,38.6,31.7,11.5,0000.0,0020.17,0007.70,0005.32
2023-05-01 22:23:00,,0826.6,5.00,0.00,30.2,28.7,00.0,38.6,31.7,11.5,0000.0,0021.66,0007.79,0005.33
2023-05-01 22:24:00,,0826.6,5.01,0.00,30.2,28.7,00.0,38.6,31.7,11.6,0000.0,0024.25,0007.85,0005.38
2023-05-01 22:25:00,,0826.6,5.00,0.00,30.2,28.8,00.0,38.6,31.7,11.7,0000.0,0023.60,0007.87,0005.42
2023-05-01 22:26:00,,0826.6,5.00,0.00,30.2,28.9,00.0,38.6,31.7,11.6,0000.0,0022.39,0007.87,0005.47
2023-05-01 22:27:00,,0826.6,4.98,0.00,30.2,28.9,00.0,38.6,31.8,11.4,0000.0,0021.87,0007.89,0005.50
2023-05-01 22:28:00,,0826.6,4.99,0.00,30.2,29.0,00.0,38.6,31.8,11.5,0000.0,0023.01,0008.09,0005.56
2023-05-01 22:29:00,,0826.6,5.00,0.00,30.3,29.0,00.0,38.6,31.8,11.4,0000.0,0022.94,0008.12,0005.59
2023-05-01 22:30:00,,0826.6,5.00,0.00,30.3,29.0,00.0,38.7,31.8,11.4,0000.0,0023.40,0008.07,0005.59
2023-05-01 22:31:00,,0826.6,5.00,0.00,30.3,29.0,00.0,38.7,31.8,11.5,0000.0,0024.27,0008.09,0005.61
2023-05-01 22:32:00,,0826.6,5.00,0.00,30.3,29.0,00.0,38.7,31.8,11.6,0000.0,0024.38,0008.13,0005.64
2023-05-01 22:33:00,,0826.6,5.01,0.00,30.3,29.0,00.0,38.7,31.9,11.7,0000.0,0024.63,0008.16,0005.67
2023-05-01 22:34:00,,0826.6,5.00,0.00,30.3,29.1,00.0,38.7,31.9,11.7,0000.0,0023.99,0008.12,0005.65
2023-05-01 22:35:00,,0826.6,5.00,0.00,30.3,29.1,00.0,38.7,31.9,11.3,0000.0,0021.61,0008.09,0005.63
2023-05-01 22:36:00,,0826.6,5.00,0.00,30.3,29.1,00.0,38.7,31.9,11.7,0000.0,0022.10,0008.14,0005.61
2023-05-01 22:37:00,,0826.6,4.99,0.00,30.4,29.2,00.0,38.7,31.9,11.5,0000.0,0022.89,0008.23,0005.61
2023-05-01 22:38:00,,0826.6,5.00,0.00,30.4,28.4,00.0,38.7,31.9,11.5,0000.0,0023.15,0008.22,0005.59
2023-05-01 22:39:00,,0826.6,5.00,0.00,30.3,26.3,00.0,38.6,31.6,11.4,0000.0,0022.16,0008.07,0005.54
2023-05-01 22:40:00,,0826.6,5.00,0.00,30.2,25.5,00.0,38.5,31.4,11.4,0000.0,0022.17,0007.97,0005.53
2023-05-01 22:41:00,,0826.6,5.01,0.00,30.2,25.7,00.0,38.5,31.3,11.7,0000.0,0021.80,0008.06,0005.58
2023-05-01 22:42:00,,0826.6,5.00,0.00,30.1,26.1,00.0,38.5,31.3,12.1,0000.0,0021.23,0008.25,0005.75
2023-05-01 22:43:00,,0826.6,5.00,0.00,30.0,26.5,00.0,38.5,31.3,12.2,0000.0,0020.72,0008.55,0005.99
2023-05-01 22:44:00,,0826.6,4.99,0.00,30.0,26.9,00.0,38.5,31.4,12.3,0000.0,0021.57,0008.84,0006.32
2023-05-01 22:45:00,,0826.6,5.01,0.00,30.0,27.3,00.0,38.5,31.4,12.5,0000.0,0023.11,0009.20,0006.67
2023-05-01 22:46:00,,0826.7,4.99,0.00,30.0,27.6,00.0,38.5,31.5,12.7,0000.0,0023.29,0009.54,0006.99
2023-05-01 22:47:00,,0826.7,4.99,0.00,30.0,27.9,00.0,38.5,31.5,12.8,0000.0,0024.13,0009.87,0007.35
2023-05-01 22:48:00,,0826.6,5.00,0.00,30.0,28.2,00.0,38.5,31.6,12.8,0000.0,0023.98,0010.16,0007.67
2023-05-01 22:49:00,,0826.6,5.00,0.00,30.1,28.3,00.0,38.5,31.6,12.7,0000.0,0025.25,0010.51,0007.99
2023-05-01 22:50:00,,0826.6,5.01,0.00,30.1,28.5,00.0,38.5,31.6,12.3,0000.0,0027.55,0010.92,0008.35
2023-05-01 22:51:00,,0826.6,5.01,0.00,30.1,28.6,00.0,38.5,31.7,12.3,0004.2,0028.32,0011.31,0008.77
2023-05-01 22:52:00,,0826.6,5.00,0.00,30.1,28.7,00.0,38.5,31.7,12.5,0004.3,0031.65,0011.78,0009.20
2023-05-01 22:53:00,,0826.6,4.98,0.00,30.2,28.8,00.0,38.5,31.8,12.3,0004.0,0032.59,0012.15,0009.58
2023-05-01 22:54:00,,0826.6,5.00,0.00,30.2,28.9,00.0,38.5,31.8,12.2,0004.3,0033.97,0012.41,0009.84
2023-05-01 22:55:00,,0826.6,5.01,0.00,30.2,29.0,00.0,38.5,31.8,12.3,0004.3,0033.43,0012.66,0010.03
2023-05-01 22:56:00,,0826.5,5.01,0.00,30.2,29.0,00.0,38.5,31.8,12.6,0004.7,0032.87,0012.86,0010.16
2023-05-01 22:57:00,,0826.6,5.00,0.00,30.2,29.1,00.0,38.5,31.8,12.5,0004.9,0032.97,0012.96,0010.28
2023-05-01 22:58:00,,0826.6,5.00,0.00,30.3,29.1,00.0,38.6,31.9,12.8,0004.0,0032.22,0013.09,0010.37
2023-05-01 22:59:00,,0826.6,5.00,0.00,30.3,29.2,00.0,38.6,31.9,12.5,0004.1,0032.32,0013.32,0010.55
